カタログに戻る

ONEWEB-0292

運用中通信PO
NORAD 49186·PAYLOAD·🇬🇧 United Kingdom

打ち上げ Sep 14, 2021 から Baikonur Cosmodrome

Loading…

次のパス (今後24時間)

TLE

最新Source: CelesTrak SupGP

元期: Sep 14, 2026, 20:00 UTC

1 49186C 21083A   26257.83352269 -.00000765  00000+0 -20986-2 0  2575
2 49186  87.8908 302.4013 0002036 101.0689 291.8008 13.13465852    16

AllMySatでONEWEB-0292をリアルタイム追跡

Download on the App Store